Perryton, TX

12:21 AM CDT on May 28, 2017 (GMT -0500)
Perryton Ochiltree County

Weather History for KPYX - May, 2012

Change the Weather History Date:

Sunday, May 6, 2012

  Actual Average Record
Temperature  
Mean Temperature 62 °F -  
Max Temperature 69 °F 73 °F 95 °F (2004)
Min Temperature 55 °F 46 °F 38 °F (1979)
Degree Days  
Heating Degree Days 3    
Growing Degree Days 12 (Base 50)    
Moisture  
Dew Point 54 °F    
Average Humidity 71    
Maximum Humidity 94    
Minimum Humidity 52    
Precipitation  
Precipitation 0.00 in - - ()
Sea Level Pressure  
Sea Level Pressure 29.90 in    
Wind  
Wind Speed 13 mph (NNE)    
Max Wind Speed 30 mph    
Max Gust Speed 39 mph    
Visibility 10 miles    
Events      
Averages and records for this station are not official NWS values.
T = Trace of Precipitation, MM = Missing Value Source: NWS Daily Summary

Daily Weather History Graph

Daily Weather History Graph

Search for Another Location

Airport or City:

Trip Planner

Search our weather history database for the weather conditions in past years. The results will help you decide how hot, cold, wet, or windy it might be!

Date:

Astronomy

May. 06, 2012 Rise Set
Actual Time 6:43 AM CDT 8:35 PM CDT
Civil Twilight 6:15 AM CDT 9:03 PM CDT
Nautical Twilight 5:41 AM CDT 9:38 PM CDT
Astronomical Twilight 5:05 AM CDT 10:14 PM CDT
Moon 9:40 PM CDT (5/6) 6:57 AM CDT (5/6)
Length of Visible Light 14h 48m
Length of Day
13h 51m
Full, 100% of the Moon is Illuminated
May 6
Full
May 12
Last Quarter
May 20
New
May 28
First Quarter
Jun 4
Full

Hourly Weather History & Observations

Time (CDT) Temp. Dew Point Humidity Pressure Visibility Wind Dir Wind Speed Gust Speed Precip Events Conditions
12:15 AM 68.0 °F 50.0 °F 52% 29.73 in 10.0 mi ESE 8.1 mph - N/A   Clear
12:35 AM 66.2 °F 51.8 °F 60% 29.74 in 10.0 mi SE 10.4 mph - N/A   Clear
12:55 AM 68.0 °F 53.6 °F 60% 29.74 in 10.0 mi SSE 9.2 mph - N/A   Clear
1:15 AM 64.4 °F 55.4 °F 73% 29.75 in 10.0 mi SSE 6.9 mph - N/A   Clear
1:35 AM 62.6 °F 55.4 °F 77% 29.74 in 10.0 mi SE 6.9 mph - N/A   Clear
1:55 AM 60.8 °F 55.4 °F 82% 29.74 in 10.0 mi SE 5.8 mph - N/A   Clear
2:15 AM 59.0 °F 55.4 °F 88% 29.74 in 7.0 mi SE 8.1 mph - N/A   Clear
2:35 AM 60.8 °F 57.2 °F 88% 29.74 in 7.0 mi ESE 6.9 mph - N/A   Clear
3:15 AM 60.8 °F 59.0 °F 94% 29.73 in 5.0 mi SE 6.9 mph - N/A   Clear
3:35 AM 60.8 °F 59.0 °F 94% 29.73 in 5.0 mi SE 8.1 mph - N/A   Clear
3:55 AM 59.0 °F 55.4 °F 88% 29.73 in 7.0 mi ESE 3.5 mph - N/A   Clear
4:15 AM 60.8 °F 55.4 °F 82% 29.72 in 10.0 mi SSE 4.6 mph - N/A   Clear
4:35 AM 59.0 °F 53.6 °F 82% 29.73 in 10.0 mi SE 6.9 mph - N/A   Clear
4:55 AM 59.0 °F 50.0 °F 72% 29.73 in 10.0 mi ESE 6.9 mph - N/A   Clear
5:15 AM 60.8 °F 50.0 °F 68% 29.73 in 10.0 mi ESE 10.4 mph - N/A   Clear
5:35 AM 60.8 °F 51.8 °F 72% 29.73 in 10.0 mi SE 6.9 mph - N/A   Clear
5:55 AM 59.0 °F 50.0 °F 72% 29.74 in 10.0 mi WSW 4.6 mph - N/A   Clear
6:15 AM 59.0 °F 42.8 °F 55% 29.76 in 10.0 mi North 3.5 mph 15.0 mph N/A   Clear
6:35 AM 57.2 °F 42.8 °F 59% 29.76 in 10.0 mi North 5.8 mph - N/A   Clear
6:55 AM 55.4 °F 44.6 °F 67% 29.78 in 10.0 mi Calm Calm - N/A   Clear
7:15 AM 57.2 °F 41.0 °F 55% 29.79 in 10.0 mi NNW 10.4 mph - N/A   Clear
7:35 AM 60.8 °F 53.6 °F 77% 29.80 in 10.0 mi North 15.0 mph 19.6 mph N/A   Clear
7:55 AM 60.8 °F 57.2 °F 88% 29.83 in 7.0 mi NNW 17.3 mph 21.9 mph N/A   Mostly Cloudy
8:15 AM 62.6 °F 59.0 °F 88% 29.85 in 10.0 mi NNW 15.0 mph 21.9 mph N/A   Overcast
8:35 AM 62.6 °F 59.0 °F 88% 29.85 in 10.0 mi North 20.7 mph 27.6 mph N/A   Overcast
8:55 AM 62.6 °F 59.0 °F 88% 29.86 in 10.0 mi NNW 20.7 mph 26.5 mph N/A   Overcast
9:15 AM 64.4 °F 59.0 °F 83% 29.87 in 10.0 mi North 24.2 mph 32.2 mph N/A   Overcast
9:35 AM 64.4 °F 57.2 °F 77% 29.89 in 10.0 mi North 21.9 mph 27.6 mph N/A   Overcast
9:55 AM 64.4 °F 55.4 °F 73% 29.90 in 10.0 mi North 24.2 mph 29.9 mph N/A   Overcast
10:15 AM 64.4 °F 55.4 °F 73% 29.91 in 10.0 mi North 21.9 mph 34.5 mph N/A   Overcast
10:35 AM 64.4 °F 55.4 °F 73% 29.91 in 10.0 mi North 25.3 mph 31.1 mph N/A   Overcast
10:55 AM 66.2 °F 55.4 °F 68% 29.92 in 10.0 mi North 29.9 mph 35.7 mph N/A   Overcast
11:15 AM 66.2 °F 55.4 °F 68% 29.93 in 10.0 mi North 26.5 mph 39.1 mph N/A   Overcast
11:35 AM 66.2 °F 55.4 °F 68% 29.94 in 10.0 mi North 27.6 mph 39.1 mph N/A   Overcast
11:55 AM 66.2 °F 55.4 °F 68% 29.95 in 10.0 mi North 25.3 mph 33.4 mph N/A   Overcast
12:15 PM 66.2 °F 55.4 °F 68% 29.96 in 10.0 mi North 26.5 mph 35.7 mph N/A   Overcast
12:35 PM 64.4 °F 55.4 °F 73% 29.96 in 10.0 mi NNW 24.2 mph 32.2 mph N/A   Overcast
12:55 PM 62.6 °F 53.6 °F 72% 29.97 in 10.0 mi NNW 25.3 mph 31.1 mph N/A   Overcast
1:15 PM 60.8 °F 53.6 °F 77% 29.97 in 10.0 mi NNW 24.2 mph 34.5 mph N/A   Overcast
1:35 PM 60.8 °F 53.6 °F 77% 29.98 in 10.0 mi North 23.0 mph 32.2 mph N/A   Overcast
1:55 PM 62.6 °F 53.6 °F 72% 29.98 in 10.0 mi North 20.7 mph 29.9 mph N/A   Overcast
2:15 PM 62.6 °F 51.8 °F 68% 29.98 in 10.0 mi NNW 26.5 mph 32.2 mph N/A   Overcast
2:35 PM 64.4 °F 53.6 °F 68% 29.98 in 10.0 mi North 25.3 mph 33.4 mph N/A   Overcast
2:55 PM 66.2 °F 53.6 °F 64% 29.97 in 10.0 mi North 24.2 mph 33.4 mph N/A   Overcast
3:15 PM 68.0 °F 53.6 °F 60% 29.97 in 10.0 mi North 20.7 mph 28.8 mph N/A   Overcast
3:35 PM 68.0 °F 53.6 °F 60% 29.98 in 10.0 mi North 18.4 mph 29.9 mph N/A   Overcast
3:55 PM 69.8 °F 53.6 °F 56% 29.97 in 10.0 mi North 23.0 mph 31.1 mph N/A   Overcast
4:15 PM 69.8 °F 55.4 °F 60% 29.97 in 10.0 mi North 20.7 mph 27.6 mph N/A   Overcast
4:35 PM 68.0 °F 53.6 °F 60% 29.97 in 10.0 mi North 19.6 mph 31.1 mph N/A   Overcast
4:55 PM 68.0 °F 53.6 °F 60% 29.96 in 10.0 mi North 23.0 mph 31.1 mph N/A   Overcast
5:15 PM 68.0 °F 55.4 °F 64% 29.97 in 10.0 mi North 19.6 mph 29.9 mph N/A   Overcast
5:35 PM 68.0 °F 53.6 °F 60% 29.97 in 10.0 mi North 18.4 mph 27.6 mph N/A   Overcast
5:55 PM 68.0 °F 53.6 °F 60% 29.97 in 10.0 mi North 17.3 mph 26.5 mph N/A   Overcast
6:15 PM 66.2 °F 53.6 °F 64% 29.98 in 10.0 mi North 16.1 mph 24.2 mph N/A   Overcast
6:35 PM 66.2 °F 53.6 °F 64% 29.98 in 10.0 mi North 19.6 mph 24.2 mph N/A   Overcast
6:55 PM 66.2 °F 55.4 °F 68% 29.98 in 10.0 mi NNE 15.0 mph - N/A   Overcast
7:15 PM 66.2 °F 55.4 °F 68% 29.98 in 10.0 mi North 13.8 mph 17.3 mph N/A   Overcast
7:35 PM 64.4 °F 53.6 °F 68% 29.98 in 10.0 mi NNE 15.0 mph 21.9 mph N/A   Overcast
7:55 PM 64.4 °F 53.6 °F 68% 29.98 in 10.0 mi North 13.8 mph 21.9 mph N/A   Overcast
8:15 PM 64.4 °F 53.6 °F 68% 29.98 in 10.0 mi North 11.5 mph - N/A   Overcast
8:35 PM 62.6 °F 53.6 °F 72% 29.98 in 10.0 mi North 12.7 mph 20.7 mph N/A   Overcast
8:55 PM 62.6 °F 53.6 °F 72% 29.99 in 10.0 mi North 11.5 mph - N/A   Overcast
9:35 PM 62.6 °F 53.6 °F 72% 30.02 in 10.0 mi North 15.0 mph 19.6 mph N/A   Overcast
9:55 PM 62.6 °F 53.6 °F 72% 30.03 in 10.0 mi North 12.7 mph - N/A   Overcast
10:15 PM 62.6 °F 53.6 °F 72% 30.04 in 10.0 mi NNE 10.4 mph - N/A   Overcast
10:35 PM 62.6 °F 53.6 °F 72% 30.05 in 10.0 mi NNE 11.5 mph 16.1 mph N/A   Overcast
10:55 PM 62.6 °F 51.8 °F 68% 30.05 in 10.0 mi NNE 12.7 mph 17.3 mph N/A   Overcast
11:15 PM 62.6 °F 51.8 °F 68% 30.06 in 10.0 mi NNE 9.2 mph - N/A   Overcast
11:35 PM 62.6 °F 51.8 °F 68% 30.06 in 10.0 mi NNE 11.5 mph 18.4 mph N/A   Overcast
11:55 PM 62.6 °F 51.8 °F 68% 30.06 in 10.0 mi NNE 10.4 mph - N/A   Overcast